Time,TemperatureF,DewpointF,PressureIn,WindDirection,WindDirectionDegrees,WindSpeedMPH,WindSpeedGustMPH,Humidity,HourlyPrecipIn,Conditions,Clouds,dailyrainin,SolarRadiationWatts/m^2,SoftwareType,DateUTC
2013-06-26 00:01:00,85.8,59.0,30.06,NNW,331,0.0,-999.0,41,-99.99,,,0.00,0,weatherlink.com 1.10,2013-06-26 07:01:00,
2013-06-26 00:16:00,85.4,59.0,30.06,NNW,327,0.0,-999.0,41,-99.99,,,0.00,0,weatherlink.com 1.10,2013-06-26 07:16:00,
2013-06-26 00:31:00,85.1,59.0,30.06,NNW,330,1.0,-999.0,41,-99.99,,,0.00,0,weatherlink.com 1.10,2013-06-26 07:31:00,
2013-06-26 00:46:00,85.4,59.0,30.06,NNW,333,0.0,-999.0,41,-99.99,,,0.00,0,weatherlink.com 1.10,2013-06-26 07:46:00,
2013-06-26 01:01:00,85.2,59.0,30.06,NNW,331,0.0,-999.0,41,-99.99,,,0.00,0,weatherlink.com 1.10,2013-06-26 08:01:00,
2013-06-26 01:16:00,84.9,59.0,30.06,NNW,327,0.0,-999.0,41,-99.99,,,0.00,0,weatherlink.com 1.10,2013-06-26 08:16:00,
2013-06-26 01:31:00,84.7,58.0,30.06,NNW,334,0.0,-999.0,41,-99.99,,,0.00,0,weatherlink.com 1.10,2013-06-26 08:31:00,
2013-06-26 01:46:00,84.4,59.0,30.06,NNW,336,0.0,-999.0,42,-99.99,,,0.00,0,weatherlink.com 1.10,2013-06-26 08:46:00,
2013-06-26 02:01:00,84.3,59.0,30.06,NNW,333,0.0,-999.0,42,-99.99,,,0.00,0,weatherlink.com 1.10,2013-06-26 09:01:00,
2013-06-26 02:16:00,84.2,59.0,30.07,NNW,332,2.0,-999.0,42,-99.99,,,0.00,0,weatherlink.com 1.10,2013-06-26 09:16:00,
2013-06-26 02:31:00,84.1,59.0,30.07,NNW,327,0.0,-999.0,42,-99.99,,,0.00,0,weatherlink.com 1.10,2013-06-26 09:31:00,
2013-06-26 02:46:00,83.7,59.0,30.07,NW,317,9.0,-999.0,43,-99.99,,,0.00,0,weatherlink.com 1.10,2013-06-26 09:46:00,
2013-06-26 03:01:00,83.6,59.0,30.08,NW,315,4.0,-999.0,43,-99.99,,,0.00,0,weatherlink.com 1.10,2013-06-26 10:01:00,
2013-06-26 03:16:00,83.4,59.0,30.07,NW,315,0.0,-999.0,44,-99.99,,,0.00,0,weatherlink.com 1.10,2013-06-26 10:16:00,
2013-06-26 03:31:00,82.0,60.0,30.08,NW,315,0.0,-999.0,47,-99.99,,,0.00,0,weatherlink.com 1.10,2013-06-26 10:31:00,
2013-06-26 03:46:00,81.0,60.0,30.08,NW,315,0.0,-999.0,49,-99.99,,,0.00,0,weatherlink.com 1.10,2013-06-26 10:46:00,
2013-06-26 04:01:00,80.3,60.0,30.08,NW,315,0.0,-999.0,50,-99.99,,,0.00,0,weatherlink.com 1.10,2013-06-26 11:01:00,
2013-06-26 04:16:00,80.0,60.0,30.09,NW,314,0.0,-999.0,51,-99.99,,,0.00,0,weatherlink.com 1.10,2013-06-26 11:16:00,
2013-06-26 04:31:00,79.4,60.0,30.09,NW,315,0.0,-999.0,52,-99.99,,,0.00,0,weatherlink.com 1.10,2013-06-26 11:31:00,
2013-06-26 04:46:00,79.2,61.0,30.09,NW,315,0.0,-999.0,53,-99.99,,,0.00,0,weatherlink.com 1.10,2013-06-26 11:46:00,
2013-06-26 05:01:00,78.9,60.0,30.10,NW,314,0.0,-999.0,53,-99.99,,,0.00,0,weatherlink.com 1.10,2013-06-26 12:01:00,
2013-06-26 05:16:00,79.3,60.0,30.11,NW,315,0.0,-999.0,52,-99.99,,,0.00,0,weatherlink.com 1.10,2013-06-26 12:16:00,
2013-06-26 05:31:00,79.6,60.0,30.11,NW,314,0.0,-999.0,51,-99.99,,,0.00,0,weatherlink.com 1.10,2013-06-26 12:31:00,
2013-06-26 05:46:00,79.3,61.0,30.12,NW,315,0.0,-999.0,53,-99.99,,,0.00,7,weatherlink.com 1.10,2013-06-26 12:46:00,
2013-06-26 06:01:00,78.8,61.0,30.12,NW,315,0.0,-999.0,54,-99.99,,,0.00,25,weatherlink.com 1.10,2013-06-26 13:01:00,
2013-06-26 06:16:00,79.8,61.0,30.12,NW,314,0.0,-999.0,52,-99.99,,,0.00,51,weatherlink.com 1.10,2013-06-26 13:16:00,
2013-06-26 06:31:00,80.8,61.0,30.12,NW,315,0.0,-999.0,51,-99.99,,,0.00,90,weatherlink.com 1.10,2013-06-26 13:31:00,
2013-06-26 06:47:00,82.1,63.0,30.13,NW,315,0.0,-999.0,53,-99.99,,,0.00,132,weatherlink.com 1.10,2013-06-26 13:47:00,
2013-06-26 07:02:00,83.8,63.0,30.13,NW,314,0.0,-999.0,50,-99.99,,,0.00,174,weatherlink.com 1.10,2013-06-26 14:02:00,
2013-06-26 07:17:00,85.9,62.0,30.13,NW,314,0.0,-999.0,44,-99.99,,,0.00,214,weatherlink.com 1.10,2013-06-26 14:17:00,
2013-06-26 07:32:00,86.0,63.0,30.14,WNW,294,0.0,-999.0,47,-99.99,,,0.00,253,weatherlink.com 1.10,2013-06-26 14:32:00,
2013-06-26 07:47:00,86.2,64.0,30.14,West,278,0.0,-999.0,48,-99.99,,,0.00,295,weatherlink.com 1.10,2013-06-26 14:47:00,
2013-06-26 08:02:00,86.5,65.0,30.14,SW,226,0.0,-999.0,49,-99.99,,,0.00,339,weatherlink.com 1.10,2013-06-26 15:02:00,
2013-06-26 08:17:00,87.0,65.0,30.15,SSW,206,0.0,-999.0,48,-99.99,,,0.00,381,weatherlink.com 1.10,2013-06-26 15:17:00,
2013-06-26 08:32:00,87.7,65.0,30.15,SSW,200,0.0,-999.0,47,-99.99,,,0.00,425,weatherlink.com 1.10,2013-06-26 15:32:00,
2013-06-26 08:47:00,88.0,65.0,30.15,SSW,193,0.0,-999.0,46,-99.99,,,0.00,468,weatherlink.com 1.10,2013-06-26 15:47:00,
2013-06-26 09:02:00,88.4,64.0,30.15,South,188,0.0,-999.0,45,-99.99,,,0.00,503,weatherlink.com 1.10,2013-06-26 16:02:00,
2013-06-26 09:17:00,89.6,64.0,30.16,South,180,0.0,-999.0,42,-99.99,,,0.00,550,weatherlink.com 1.10,2013-06-26 16:17:00,
2013-06-26 09:32:00,90.5,63.0,30.16,South,176,0.0,-999.0,40,-99.99,,,0.00,585,weatherlink.com 1.10,2013-06-26 16:32:00,
2013-06-26 09:47:00,91.1,63.0,30.16,South,169,0.0,-999.0,39,-99.99,,,0.00,624,weatherlink.com 1.10,2013-06-26 16:47:00,
2013-06-26 10:02:00,91.4,62.0,30.15,SSE,153,2.0,-999.0,38,-99.99,,,0.00,657,weatherlink.com 1.10,2013-06-26 17:02:00,
2013-06-26 10:18:00,92.2,63.0,30.16,SSE,151,0.0,-999.0,38,-99.99,,,0.00,693,weatherlink.com 1.10,2013-06-26 17:18:00,
2013-06-26 10:33:00,92.9,63.0,30.16,SE,140,0.0,-999.0,37,-99.99,,,0.00,719,weatherlink.com 1.10,2013-06-26 17:33:00,
2013-06-26 10:48:00,93.1,63.0,30.16,SSE,163,1.0,-999.0,37,-99.99,,,0.00,745,weatherlink.com 1.10,2013-06-26 17:48:00,
2013-06-26 11:03:00,93.1,62.0,30.16,South,173,2.0,-999.0,36,-99.99,,,0.00,768,weatherlink.com 1.10,2013-06-26 18:03:00,
2013-06-26 11:18:00,93.9,62.0,30.16,South,172,0.0,-999.0,35,-99.99,,,0.00,789,weatherlink.com 1.10,2013-06-26 18:18:00,
2013-06-26 11:33:00,94.3,63.0,30.16,SSE,150,6.0,-999.0,35,-99.99,,,0.00,807,weatherlink.com 1.10,2013-06-26 18:33:00,
2013-06-26 11:48:00,94.6,62.0,30.15,SSE,167,1.0,-999.0,34,-99.99,,,0.00,823,weatherlink.com 1.10,2013-06-26 18:48:00,
2013-06-26 12:03:00,95.7,63.0,30.15,SSE,160,0.0,-999.0,34,-99.99,,,0.00,831,weatherlink.com 1.10,2013-06-26 19:03:00,
2013-06-26 12:18:00,96.2,64.0,30.15,SSE,165,7.0,-999.0,35,-99.99,,,0.00,838,weatherlink.com 1.10,2013-06-26 19:18:00,
2013-06-26 12:33:00,96.5,63.0,30.14,SSE,161,5.0,-999.0,33,-99.99,,,0.00,840,weatherlink.com 1.10,2013-06-26 19:33:00,
2013-06-26 12:48:00,97.6,62.0,30.14,SSE,156,0.0,-999.0,31,-99.99,,,0.00,844,weatherlink.com 1.10,2013-06-26 19:48:00,
2013-06-26 13:03:00,98.0,63.0,30.13,South,172,5.0,-999.0,31,-99.99,,,0.00,837,weatherlink.com 1.10,2013-06-26 20:03:00,
2013-06-26 13:18:00,98.3,63.0,30.13,South,169,4.0,-999.0,31,-99.99,,,0.00,833,weatherlink.com 1.10,2013-06-26 20:18:00,
2013-06-26 13:33:00,99.0,63.0,30.13,South,185,7.0,-999.0,30,-99.99,,,0.00,823,weatherlink.com 1.10,2013-06-26 20:33:00,
2013-06-26 13:48:00,99.5,62.0,30.12,SSE,156,2.0,-999.0,29,-99.99,,,0.00,807,weatherlink.com 1.10,2013-06-26 20:48:00,
2013-06-26 14:03:00,99.8,61.0,30.12,South,171,2.0,-999.0,28,-99.99,,,0.00,795,weatherlink.com 1.10,2013-06-26 21:03:00,
2013-06-26 14:18:00,100.1,62.0,30.11,SSE,160,0.0,-999.0,28,-99.99,,,0.00,773,weatherlink.com 1.10,2013-06-26 21:18:00,
2013-06-26 14:33:00,100.3,61.0,30.10,SSE,167,2.0,-999.0,27,-99.99,,,0.00,749,weatherlink.com 1.10,2013-06-26 21:33:00,
2013-06-26 14:48:00,101.6,61.0,30.10,SSE,164,0.0,-999.0,26,-99.99,,,0.00,722,weatherlink.com 1.10,2013-06-26 21:48:00,
2013-06-26 15:03:00,101.5,61.0,30.10,SSE,168,0.0,-999.0,26,-99.99,,,0.00,696,weatherlink.com 1.10,2013-06-26 22:03:00,
2013-06-26 15:18:00,101.6,61.0,30.09,South,175,1.0,-999.0,26,-99.99,,,0.00,663,weatherlink.com 1.10,2013-06-26 22:18:00,
2013-06-26 15:33:00,101.8,61.0,30.09,South,175,0.0,-999.0,26,-99.99,,,0.00,633,weatherlink.com 1.10,2013-06-26 22:33:00,
2013-06-26 15:48:00,102.7,63.0,30.08,South,171,4.0,-999.0,27,-99.99,,,0.00,598,weatherlink.com 1.10,2013-06-26 22:48:00,
2013-06-26 16:03:00,102.6,62.0,30.07,SSE,168,0.0,-999.0,26,-99.99,,,0.00,561,weatherlink.com 1.10,2013-06-26 23:03:00,
2013-06-26 16:19:00,102.9,62.0,30.07,SE,145,0.0,-999.0,26,-99.99,,,0.00,522,weatherlink.com 1.10,2013-06-26 23:19:00,
2013-06-26 16:34:00,103.3,62.0,30.07,SE,140,0.0,-999.0,26,-99.99,,,0.00,483,weatherlink.com 1.10,2013-06-26 23:34:00,
2013-06-26 16:49:00,102.7,62.0,30.06,SSE,148,6.0,-999.0,26,-99.99,,,0.00,445,weatherlink.com 1.10,2013-06-26 23:49:00,
2013-06-26 17:04:00,102.7,62.0,30.06,SE,146,0.0,-999.0,26,-99.99,,,0.00,401,weatherlink.com 1.10,2013-06-27 00:04:00,
2013-06-26 17:19:00,102.6,62.0,30.05,SSE,165,1.0,-999.0,26,-99.99,,,0.00,359,weatherlink.com 1.10,2013-06-27 00:19:00,
2013-06-26 17:34:00,102.3,62.0,30.05,SE,146,1.0,-999.0,27,-99.99,,,0.00,316,weatherlink.com 1.10,2013-06-27 00:34:00,
2013-06-26 17:49:00,102.0,62.0,30.05,South,169,0.0,-999.0,27,-99.99,,,0.00,272,weatherlink.com 1.10,2013-06-27 00:49:00,
2013-06-26 18:04:00,102.3,61.0,30.04,South,169,0.0,-999.0,26,-99.99,,,0.00,236,weatherlink.com 1.10,2013-06-27 01:04:00,
2013-06-26 18:19:00,102.2,61.0,30.04,SSE,164,1.0,-999.0,26,-99.99,,,0.00,190,weatherlink.com 1.10,2013-06-27 01:19:00,
2013-06-26 18:34:00,101.6,62.0,30.04,SSE,163,0.0,-999.0,27,-99.99,,,0.00,151,weatherlink.com 1.10,2013-06-27 01:34:00,
2013-06-26 18:49:00,101.1,61.0,30.04,SSE,166,1.0,-999.0,27,-99.99,,,0.00,88,weatherlink.com 1.10,2013-06-27 01:49:00,
2013-06-26 19:04:00,100.7,62.0,30.05,SSE,165,4.0,-999.0,28,-99.99,,,0.00,35,weatherlink.com 1.10,2013-06-27 02:04:00,
2013-06-26 19:19:00,99.9,62.0,30.05,SSE,162,0.0,-999.0,29,-99.99,,,0.00,19,weatherlink.com 1.10,2013-06-27 02:19:00,
2013-06-26 19:34:00,99.2,62.0,30.05,SSE,159,5.0,-999.0,29,-99.99,,,0.00,14,weatherlink.com 1.10,2013-06-27 02:34:00,
2013-06-26 19:49:00,98.6,62.0,30.05,SSE,159,0.0,-999.0,30,-99.99,,,0.00,9,weatherlink.com 1.10,2013-06-27 02:49:00,
2013-06-26 20:04:00,97.9,63.0,30.06,SSE,159,1.0,-999.0,31,-99.99,,,0.00,0,weatherlink.com 1.10,2013-06-27 03:04:00,
2013-06-26 20:19:00,97.4,63.0,30.06,SSE,159,0.0,-999.0,32,-99.99,,,0.00,0,weatherlink.com 1.10,2013-06-27 03:19:00,
2013-06-26 20:34:00,96.8,62.0,30.07,SSE,159,0.0,-999.0,32,-99.99,,,0.00,0,weatherlink.com 1.10,2013-06-27 03:34:00,
2013-06-26 20:49:00,96.3,63.0,30.07,SSE,159,0.0,-999.0,33,-99.99,,,0.00,0,weatherlink.com 1.10,2013-06-27 03:49:00,
2013-06-26 21:04:00,95.8,62.0,30.08,SSE,159,0.0,-999.0,33,-99.99,,,0.00,0,weatherlink.com 1.10,2013-06-27 04:04:00,
2013-06-26 21:19:00,95.3,62.0,30.09,SSE,159,0.0,-999.0,33,-99.99,,,0.00,0,weatherlink.com 1.10,2013-06-27 04:19:00,
2013-06-26 21:34:00,94.7,63.0,30.09,SSE,159,0.0,-999.0,35,-99.99,,,0.00,0,weatherlink.com 1.10,2013-06-27 04:34:00,
2013-06-26 21:49:00,94.2,63.0,30.10,SSE,159,0.0,-999.0,35,-99.99,,,0.00,0,weatherlink.com 1.10,2013-06-27 04:49:00,
2013-06-26 22:04:00,94.0,62.0,30.10,SSE,159,0.0,-999.0,34,-99.99,,,0.00,0,weatherlink.com 1.10,2013-06-27 05:04:00,
2013-06-26 22:19:00,93.7,63.0,30.11,SSE,158,0.0,-999.0,36,-99.99,,,0.00,0,weatherlink.com 1.10,2013-06-27 05:19:00,
2013-06-26 22:34:00,93.4,63.0,30.11,SSE,158,0.0,-999.0,37,-99.99,,,0.00,0,weatherlink.com 1.10,2013-06-27 05:34:00,
2013-06-26 22:49:00,92.6,63.0,30.12,SSE,158,0.0,-999.0,38,-99.99,,,0.00,0,weatherlink.com 1.10,2013-06-27 05:49:00,
2013-06-26 23:04:00,92.0,64.0,30.12,SSE,158,0.0,-999.0,39,-99.99,,,0.00,0,weatherlink.com 1.10,2013-06-27 06:04:00,
2013-06-26 23:19:00,91.3,64.0,30.13,SSE,158,1.0,-999.0,40,-99.99,,,0.00,0,weatherlink.com 1.10,2013-06-27 06:19:00,
2013-06-26 23:34:00,90.9,63.0,30.13,SSE,157,0.0,-999.0,40,-99.99,,,0.00,0,weatherlink.com 1.10,2013-06-27 06:34:00,
2013-06-26 23:49:00,90.7,62.0,30.13,SSE,157,1.0,-999.0,39,-99.99,,,0.00,0,weatherlink.com 1.10,2013-06-27 06:49:00,